Time,TemperatureF,DewpointF,PressureIn,WindDirection,WindDirectionDegrees,WindSpeedMPH,WindSpeedGustMPH,Humidity,HourlyPrecipIn,Conditions,Clouds,dailyrainin,SolarRadiationWatts/m^2,SoftwareType,DateUTC
2013-03-27 00:00:00,39.1,20.0,29.81,NW,304,4.0,4.0,46,0.00,,,0.00,0,Wunderground v.1.15,2013-03-27 04:00:00,
2013-03-27 00:02:00,39.1,20.0,29.81,WNW,300,4.0,9.0,46,0.00,,,0.00,0,Wunderground v.1.15,2013-03-27 04:02:00,
2013-03-27 00:08:00,38.9,19.9,29.81,NW,306,5.0,10.0,46,0.00,,,0.00,0,Wunderground v.1.15,2013-03-27 04:08:00,
2013-03-27 00:10:00,38.8,19.2,29.81,WNW,300,5.0,5.0,45,0.00,,,0.00,0,Wunderground v.1.15,2013-03-27 04:10:00,
2013-03-27 00:16:00,38.8,19.8,29.81,WNW,299,6.0,6.0,46,0.00,,,0.00,0,Wunderground v.1.15,2013-03-27 04:16:00,
2013-03-27 00:18:00,38.6,19.6,29.81,NW,306,6.0,6.0,46,0.00,,,0.00,0,Wunderground v.1.15,2013-03-27 04:18:00,
2013-03-27 00:24:00,38.6,19.6,29.81,NW,306,6.0,6.0,46,0.00,,,0.00,0,Wunderground v.1.15,2013-03-27 04:24:00,
2013-03-27 00:30:00,38.5,19.5,29.81,WNW,301,5.0,5.0,46,0.00,,,0.00,0,Wunderground v.1.15,2013-03-27 04:30:00,
2013-03-27 00:36:00,38.3,19.3,29.81,NW,304,5.0,6.0,46,0.00,,,0.00,0,Wunderground v.1.15,2013-03-27 04:36:00,
2013-03-27 00:42:00,38.3,19.3,29.82,WNW,298,4.0,6.0,46,0.00,,,0.00,0,Wunderground v.1.15,2013-03-27 04:42:00,
2013-03-27 00:48:00,38.2,19.7,29.82,NW,309,5.0,6.0,47,0.00,,,0.00,0,Wunderground v.1.15,2013-03-27 04:48:00,
2013-03-27 00:54:00,38.0,19.5,29.82,WNW,298,4.0,6.0,47,0.00,,,0.00,0,Wunderground v.1.15,2013-03-27 04:54:00,
2013-03-27 01:00:00,38.0,20.0,29.82,WNW,299,3.0,5.0,48,0.00,,,0.00,0,Wunderground v.1.15,2013-03-27 05:00:00,
2013-03-27 01:06:00,37.9,19.9,29.82,NW,306,4.0,5.0,48,0.00,,,0.00,0,Wunderground v.1.15,2013-03-27 05:06:00,
2013-03-27 01:12:00,37.9,18.9,29.81,WNW,303,4.0,6.0,46,0.00,,,0.00,0,Wunderground v.1.15,2013-03-27 05:12:00,
2013-03-27 01:18:00,37.8,19.8,29.81,NW,304,4.0,6.0,48,0.00,,,0.00,0,Wunderground v.1.15,2013-03-27 05:18:00,
2013-03-27 01:24:00,37.8,19.8,29.81,NW,304,4.0,7.0,48,0.00,,,0.00,0,Wunderground v.1.15,2013-03-27 05:24:00,
2013-03-27 01:30:00,37.6,19.7,29.82,NW,304,4.0,4.0,48,0.00,,,0.00,0,Wunderground v.1.15,2013-03-27 05:30:00,
2013-03-27 01:36:00,37.5,20.1,29.82,NW,304,4.0,7.0,49,0.00,,,0.00,0,Wunderground v.1.15,2013-03-27 05:36:00,
2013-03-27 01:42:00,37.3,19.9,29.82,NW,304,3.0,6.0,49,0.00,,,0.00,0,Wunderground v.1.15,2013-03-27 05:42:00,
2013-03-27 01:48:00,37.2,19.8,29.82,NW,304,4.0,6.0,49,0.00,,,0.00,0,Wunderground v.1.15,2013-03-27 05:48:00,
2013-03-27 01:54:00,37.2,19.8,29.82,WNW,303,4.0,7.0,49,0.00,,,0.00,0,Wunderground v.1.15,2013-03-27 05:54:00,
2013-03-27 02:00:00,37.2,19.8,29.82,WNW,296,5.0,5.0,49,0.00,,,0.00,0,Wunderground v.1.15,2013-03-27 06:00:00,
2013-03-27 02:06:00,37.0,20.1,29.82,NW,306,5.0,7.0,50,0.00,,,0.00,0,Wunderground v.1.15,2013-03-27 06:06:00,
2013-03-27 02:12:00,36.8,19.9,29.81,NW,304,4.0,7.0,50,0.00,,,0.00,0,Wunderground v.1.15,2013-03-27 06:12:00,
2013-03-27 02:18:00,36.6,20.2,29.81,WNW,302,3.0,7.0,51,0.00,,,0.00,0,Wunderground v.1.15,2013-03-27 06:18:00,
2013-03-27 02:24:00,36.5,20.1,29.81,WNW,301,3.0,7.0,51,0.00,,,0.00,0,Wunderground v.1.15,2013-03-27 06:24:00,
2013-03-27 02:30:00,36.3,19.9,29.81,WNW,301,3.0,3.0,51,0.00,,,0.00,0,Wunderground v.1.15,2013-03-27 06:30:00,
2013-03-27 02:36:00,36.2,20.2,29.81,WNW,301,2.0,7.0,52,0.00,,,0.00,0,Wunderground v.1.15,2013-03-27 06:36:00,
2013-03-27 02:42:00,36.0,20.1,29.81,WSW,240,1.0,7.0,52,0.00,,,0.00,0,Wunderground v.1.15,2013-03-27 06:42:00,
2013-03-27 02:48:00,35.9,20.4,29.81,WSW,244,1.0,7.0,53,0.00,,,0.00,0,Wunderground v.1.15,2013-03-27 06:48:00,
2013-03-27 02:54:00,35.9,20.4,29.81,WSW,246,1.0,7.0,53,0.00,,,0.00,0,Wunderground v.1.15,2013-03-27 06:54:00,
2013-03-27 03:00:00,35.8,20.3,29.81,WNW,289,1.0,1.0,53,0.00,,,0.00,0,Wunderground v.1.15,2013-03-27 07:00:00,
2013-03-27 03:06:00,35.6,20.1,29.81,WNW,289,1.0,7.0,53,0.00,,,0.00,0,Wunderground v.1.15,2013-03-27 07:06:00,
2013-03-27 03:12:00,35.5,20.0,29.81,WNW,287,1.0,1.0,53,0.00,,,0.00,0,Wunderground v.1.15,2013-03-27 07:12:00,
2013-03-27 03:18:00,35.3,20.3,29.81,WNW,288,1.0,1.0,54,0.00,,,0.00,0,Wunderground v.1.15,2013-03-27 07:18:00,
2013-03-27 03:24:00,35.2,20.6,29.81,WNW,287,0.0,1.0,55,0.00,,,0.00,0,Wunderground v.1.15,2013-03-27 07:24:00,
2013-03-27 03:30:00,34.9,20.4,29.81,WNW,287,0.0,1.0,55,0.00,,,0.00,0,Wunderground v.1.15,2013-03-27 07:30:00,
2013-03-27 03:36:00,34.6,20.5,29.81,WNW,287,0.0,1.0,56,0.00,,,0.00,0,Wunderground v.1.15,2013-03-27 07:36:00,
2013-03-27 03:42:00,34.3,21.0,29.81,WNW,288,0.0,1.0,58,0.00,,,0.00,0,Wunderground v.1.15,2013-03-27 07:42:00,
2013-03-27 03:48:00,34.1,20.9,29.81,WNW,287,0.0,1.0,58,0.00,,,0.00,0,Wunderground v.1.15,2013-03-27 07:48:00,
2013-03-27 03:54:00,34.0,20.8,29.81,WNW,287,0.0,1.0,58,0.00,,,0.00,0,Wunderground v.1.15,2013-03-27 07:54:00,
2013-03-27 04:00:00,33.7,20.5,29.81,WNW,287,0.0,1.0,58,0.00,,,0.00,0,Wunderground v.1.15,2013-03-27 08:00:00,
2013-03-27 04:06:00,33.5,20.3,29.81,WNW,288,0.0,1.0,58,0.00,,,0.00,0,Wunderground v.1.15,2013-03-27 08:06:00,
2013-03-27 04:12:00,33.5,20.3,29.81,WNW,288,0.0,1.0,58,0.00,,,0.00,0,Wunderground v.1.15,2013-03-27 08:12:00,
2013-03-27 04:18:00,33.5,20.3,29.81,WNW,288,0.0,1.0,58,0.00,,,0.00,0,Wunderground v.1.15,2013-03-27 08:18:00,
2013-03-27 04:24:00,33.2,20.4,29.81,WNW,287,0.0,0.0,59,0.00,,,0.00,0,Wunderground v.1.15,2013-03-27 08:24:00,
2013-03-27 04:30:00,32.9,20.5,29.81,WNW,288,0.0,0.0,60,0.00,,,0.00,0,Wunderground v.1.15,2013-03-27 08:30:00,
2013-03-27 04:36:00,32.9,20.5,29.81,WNW,288,0.0,0.0,60,0.00,,,0.00,0,Wunderground v.1.15,2013-03-27 08:36:00,
2013-03-27 04:42:00,32.7,20.3,29.81,WNW,287,0.0,0.0,60,0.00,,,0.00,0,Wunderground v.1.15,2013-03-27 08:42:00,
2013-03-27 04:48:00,32.5,20.1,29.81,WNW,287,0.0,0.0,60,0.00,,,0.00,0,Wunderground v.1.15,2013-03-27 08:48:00,
2013-03-27 04:54:00,32.5,20.1,29.81,WNW,288,0.0,0.0,60,0.00,,,0.00,0,Wunderground v.1.15,2013-03-27 08:54:00,
2013-03-27 05:00:00,32.4,20.4,29.81,WNW,287,0.0,0.0,61,0.00,,,0.00,0,Wunderground v.1.15,2013-03-27 09:00:00,
2013-03-27 05:06:00,32.4,20.4,29.81,WNW,288,0.0,2.0,61,0.00,,,0.00,0,Wunderground v.1.15,2013-03-27 09:06:00,
2013-03-27 05:12:00,32.4,20.4,29.81,WNW,287,0.0,2.0,61,0.00,,,0.00,0,Wunderground v.1.15,2013-03-27 09:12:00,
2013-03-27 05:18:00,32.2,20.6,29.81,WNW,288,0.0,2.0,62,0.00,,,0.00,0,Wunderground v.1.15,2013-03-27 09:18:00,
2013-03-27 05:24:00,32.1,20.5,29.81,WNW,288,0.0,2.0,62,0.00,,,0.00,0,Wunderground v.1.15,2013-03-27 09:24:00,
2013-03-27 05:30:00,32.1,20.5,29.81,WNW,288,0.0,2.0,62,0.00,,,0.00,0,Wunderground v.1.15,2013-03-27 09:30:00,
2013-03-27 05:36:00,32.2,20.6,29.81,WNW,288,0.0,2.0,62,0.00,,,0.00,0,Wunderground v.1.15,2013-03-27 09:36:00,
2013-03-27 05:42:00,32.4,20.8,29.81,WNW,287,0.0,2.0,62,0.00,,,0.00,0,Wunderground v.1.15,2013-03-27 09:42:00,
2013-03-27 05:48:00,32.4,20.8,29.81,WNW,287,0.0,2.0,62,0.00,,,0.00,0,Wunderground v.1.15,2013-03-27 09:48:00,
2013-03-27 05:54:00,32.5,20.5,29.81,WNW,288,0.0,2.0,61,0.00,,,0.00,0,Wunderground v.1.15,2013-03-27 09:54:00,
2013-03-27 06:00:00,32.8,20.4,29.82,WNW,287,0.0,2.0,60,0.00,,,0.00,0,Wunderground v.1.15,2013-03-27 10:00:00,
2013-03-27 06:06:00,32.8,20.4,29.82,WNW,288,0.0,2.0,60,0.00,,,0.00,0,Wunderground v.1.15,2013-03-27 10:06:00,
2013-03-27 06:12:00,32.8,20.0,29.82,WNW,288,0.0,0.0,59,0.00,,,0.00,0,Wunderground v.1.15,2013-03-27 10:12:00,
2013-03-27 06:18:00,32.7,19.9,29.82,WNW,288,0.0,0.0,59,0.00,,,0.00,0,Wunderground v.1.15,2013-03-27 10:18:00,
2013-03-27 06:24:00,32.5,20.1,29.82,WNW,287,0.0,0.0,60,0.00,,,0.00,0,Wunderground v.1.15,2013-03-27 10:24:00,
2013-03-27 06:30:00,32.4,20.4,29.82,WNW,287,0.0,0.0,61,0.00,,,0.00,0,Wunderground v.1.15,2013-03-27 10:30:00,
2013-03-27 06:36:00,32.1,20.5,29.82,WNW,288,0.0,0.0,62,0.00,,,0.00,5,Wunderground v.1.15,2013-03-27 10:36:00,
2013-03-27 06:42:00,31.8,20.3,29.83,WNW,287,0.0,0.0,62,0.00,,,0.00,9,Wunderground v.1.15,2013-03-27 10:42:00,
2013-03-27 06:48:00,31.9,20.3,29.83,WNW,288,0.0,0.0,62,0.00,,,0.00,11,Wunderground v.1.15,2013-03-27 10:48:00,
2013-03-27 06:54:00,32.2,20.2,29.83,WNW,288,0.0,0.0,61,0.00,,,0.00,16,Wunderground v.1.15,2013-03-27 10:54:00,
2013-03-27 07:00:00,32.4,20.4,29.83,WNW,288,0.0,0.0,61,0.00,,,0.00,19,Wunderground v.1.15,2013-03-27 11:00:00,
2013-03-27 07:06:00,32.4,20.8,29.83,WNW,287,0.0,0.0,62,0.00,,,0.00,21,Wunderground v.1.15,2013-03-27 11:06:00,
2013-03-27 07:12:00,32.7,20.7,29.83,WNW,288,0.0,2.0,61,0.00,,,0.00,21,Wunderground v.1.15,2013-03-27 11:12:00,
2013-03-27 07:18:00,33.2,20.4,29.83,WNW,288,1.0,4.0,59,0.00,,,0.00,79,Wunderground v.1.15,2013-03-27 11:18:00,
2013-03-27 07:24:00,33.7,20.5,29.83,WNW,288,1.0,1.0,58,0.00,,,0.00,79,Wunderground v.1.15,2013-03-27 11:24:00,
2013-03-27 07:30:00,34.3,20.6,29.83,WNW,287,0.0,0.0,57,0.00,,,0.00,54,Wunderground v.1.15,2013-03-27 11:30:00,
2013-03-27 07:36:00,35.0,20.4,29.83,WNW,288,1.0,1.0,55,0.00,,,0.00,70,Wunderground v.1.15,2013-03-27 11:36:00,
2013-03-27 07:42:00,35.6,20.6,29.84,WNW,287,2.0,2.0,54,0.00,,,0.00,88,Wunderground v.1.15,2013-03-27 11:42:00,
2013-03-27 07:48:00,36.3,20.3,29.84,WNW,287,2.0,6.0,52,0.00,,,0.00,123,Wunderground v.1.15,2013-03-27 11:48:00,
2013-03-27 07:54:00,36.9,20.9,29.84,WNW,287,2.0,3.0,52,0.00,,,0.00,123,Wunderground v.1.15,2013-03-27 11:54:00,
2013-03-27 08:00:00,37.5,20.5,29.84,WNW,300,2.0,2.0,50,0.00,,,0.00,179,Wunderground v.1.15,2013-03-27 12:00:00,
2013-03-27 08:06:00,37.9,20.4,29.84,NW,307,3.0,8.0,49,0.00,,,0.00,128,Wunderground v.1.15,2013-03-27 12:06:00,
2013-03-27 08:12:00,38.5,20.5,29.84,WNW,293,3.0,8.0,48,0.00,,,0.00,165,Wunderground v.1.15,2013-03-27 12:12:00,
2013-03-27 08:18:00,39.1,20.5,29.84,NW,304,4.0,8.0,47,0.00,,,0.00,214,Wunderground v.1.15,2013-03-27 12:18:00,
2013-03-27 08:24:00,39.8,21.2,29.84,WNW,298,5.0,8.0,47,0.00,,,0.00,253,Wunderground v.1.15,2013-03-27 12:24:00,
2013-03-27 08:30:00,40.3,21.1,29.84,WNW,293,4.0,8.0,46,0.00,,,0.00,179,Wunderground v.1.15,2013-03-27 12:30:00,
2013-03-27 08:36:00,40.6,20.9,29.84,WNW,298,6.0,8.0,45,0.00,,,0.00,200,Wunderground v.1.15,2013-03-27 12:36:00,
2013-03-27 08:42:00,41.1,21.3,29.84,WNW,301,5.0,11.0,45,0.00,,,0.00,272,Wunderground v.1.15,2013-03-27 12:42:00,
2013-03-27 08:48:00,41.2,20.9,29.84,West,281,7.0,11.0,44,0.00,,,0.00,341,Wunderground v.1.15,2013-03-27 12:48:00,
2013-03-27 08:54:00,41.5,21.2,29.84,WNW,296,8.0,10.0,44,0.00,,,0.00,223,Wunderground v.1.15,2013-03-27 12:54:00,
2013-03-27 09:00:00,41.8,21.5,29.83,WNW,284,8.0,8.0,44,0.00,,,0.00,316,Wunderground v.1.15,2013-03-27 13:00:00,
2013-03-27 09:08:00,42.5,21.5,29.83,NW,307,7.0,11.0,43,0.00,,,0.00,482,Wunderground v.1.15,2013-03-27 13:08:00,
2013-03-27 09:14:00,42.8,21.3,29.83,WNW,295,8.0,15.0,42,0.00,,,0.00,499,Wunderground v.1.15,2013-03-27 13:14:00,
2013-03-27 09:20:00,43.1,21.5,29.83,NW,311,9.0,9.0,42,0.00,,,0.00,517,Wunderground v.1.15,2013-03-27 13:20:00,
2013-03-27 09:26:00,43.9,21.7,29.84,WNW,296,8.0,11.0,41,0.00,,,0.00,526,Wunderground v.1.15,2013-03-27 13:26:00,
2013-03-27 09:32:00,44.5,21.6,29.84,NW,315,5.0,11.0,40,0.00,,,0.00,552,Wunderground v.1.15,2013-03-27 13:32:00,
2013-03-27 09:38:00,45.1,22.2,29.84,NW,315,6.0,11.0,40,0.00,,,0.00,570,Wunderground v.1.15,2013-03-27 13:38:00,
2013-03-27 09:44:00,45.5,21.3,29.83,NW,321,6.0,11.0,38,0.00,,,0.00,585,Wunderground v.1.15,2013-03-27 13:44:00,
2013-03-27 09:50:00,46.0,21.8,29.83,NW,308,6.0,6.0,38,0.00,,,0.00,601,Wunderground v.1.15,2013-03-27 13:50:00,
2013-03-27 09:56:00,46.2,21.3,29.83,NW,304,7.0,11.0,37,0.00,,,0.00,617,Wunderground v.1.15,2013-03-27 13:56:00,
2013-03-27 10:02:00,46.5,20.9,29.83,NW,313,7.0,11.0,36,0.00,,,0.00,633,Wunderground v.1.15,2013-03-27 14:02:00,
2013-03-27 10:08:00,46.8,21.9,29.83,NW,316,7.0,11.0,37,0.00,,,0.00,647,Wunderground v.1.15,2013-03-27 14:08:00,
2013-03-27 10:14:00,47.0,22.0,29.83,NW,323,6.0,10.0,37,0.00,,,0.00,664,Wunderground v.1.15,2013-03-27 14:14:00,
2013-03-27 10:20:00,46.5,20.9,29.83,WNW,297,7.0,7.0,36,0.00,,,0.00,677,Wunderground v.1.15,2013-03-27 14:20:00,
2013-03-27 10:26:00,47.1,22.1,29.82,WNW,294,7.0,10.0,37,0.00,,,0.00,691,Wunderground v.1.15,2013-03-27 14:26:00,
2013-03-27 10:32:00,47.4,21.7,29.82,North,11,7.0,10.0,36,0.00,,,0.00,703,Wunderground v.1.15,2013-03-27 14:32:00,
2013-03-27 10:38:00,47.7,21.3,29.82,NW,321,7.0,12.0,35,0.00,,,0.00,719,Wunderground v.1.15,2013-03-27 14:38:00,
2013-03-27 10:44:00,48.0,22.3,29.82,NW,323,8.0,10.0,36,0.00,,,0.00,733,Wunderground v.1.15,2013-03-27 14:44:00,
2013-03-27 10:50:00,48.0,21.6,29.82,NW,314,7.0,10.0,35,0.00,,,0.00,744,Wunderground v.1.15,2013-03-27 14:50:00,
2013-03-27 10:56:00,48.3,20.5,29.82,NW,321,8.0,12.0,33,0.00,,,0.00,752,Wunderground v.1.15,2013-03-27 14:56:00,
2013-03-27 11:04:00,48.6,22.1,29.82,NNE,22,8.0,10.0,35,0.00,,,0.00,765,Wunderground v.1.15,2013-03-27 15:04:00,
2013-03-27 11:10:00,49.2,22.0,29.81,NW,313,6.0,9.0,34,0.00,,,0.00,775,Wunderground v.1.15,2013-03-27 15:10:00,
2013-03-27 11:16:00,49.1,21.2,29.81,NW,318,7.0,9.0,33,0.00,,,0.00,788,Wunderground v.1.15,2013-03-27 15:16:00,
2013-03-27 11:22:00,49.2,22.0,29.81,NW,321,8.0,9.0,34,0.00,,,0.00,800,Wunderground v.1.15,2013-03-27 15:22:00,
2013-03-27 11:28:00,49.9,21.9,29.81,West,266,7.0,11.0,33,0.00,,,0.00,826,Wunderground v.1.15,2013-03-27 15:28:00,
2013-03-27 11:34:00,50.1,21.3,29.81,West,280,7.0,9.0,32,0.00,,,0.00,828,Wunderground v.1.15,2013-03-27 15:34:00,
2013-03-27 11:40:00,49.9,21.2,29.80,NW,325,8.0,8.0,32,0.00,,,0.00,835,Wunderground v.1.15,2013-03-27 15:40:00,
2013-03-27 11:46:00,50.7,21.1,29.80,NW,313,9.0,9.0,31,0.00,,,0.00,861,Wunderground v.1.15,2013-03-27 15:46:00,
2013-03-27 11:52:00,50.7,21.1,29.80,WNW,287,7.0,9.0,31,0.00,,,0.00,847,Wunderground v.1.15,2013-03-27 15:52:00,
2013-03-27 11:58:00,50.8,21.2,29.80,NW,318,7.0,13.0,31,0.00,,,0.00,907,Wunderground v.1.15,2013-03-27 15:58:00,
2013-03-27 12:04:00,50.7,21.9,29.80,NW,319,7.0,10.0,32,0.00,,,0.00,134,Wunderground v.1.15,2013-03-27 16:04:00,
2013-03-27 12:10:00,50.8,22.0,29.79,WNW,300,7.0,11.0,32,0.00,,,0.00,963,Wunderground v.1.15,2013-03-27 16:10:00,
2013-03-27 12:16:00,50.7,21.1,29.79,WNW,298,8.0,11.0,31,0.00,,,0.00,225,Wunderground v.1.15,2013-03-27 16:16:00,
2013-03-27 12:22:00,50.1,22.1,29.79,NW,315,8.0,11.0,33,0.00,,,0.00,993,Wunderground v.1.15,2013-03-27 16:22:00,
2013-03-27 12:28:00,50.7,21.1,29.79,NW,322,7.0,11.0,31,0.00,,,0.00,142,Wunderground v.1.15,2013-03-27 16:28:00,
2013-03-27 12:34:00,50.5,20.9,29.79,NE,35,7.0,11.0,31,0.00,,,0.00,139,Wunderground v.1.15,2013-03-27 16:34:00,
2013-03-27 12:40:00,50.7,20.4,29.79,NNW,348,7.0,11.0,30,0.00,,,0.00,990,Wunderground v.1.15,2013-03-27 16:40:00,
2013-03-27 12:46:00,51.9,21.4,29.79,NE,51,6.0,11.0,30,0.00,,,0.00,272,Wunderground v.1.15,2013-03-27 16:46:00,
2013-03-27 12:52:00,52.5,20.3,29.79,WNW,300,6.0,13.0,28,0.00,,,0.00,1020,Wunderground v.1.15,2013-03-27 16:52:00,
2013-03-27 12:58:00,51.4,20.2,29.79,NW,305,9.0,15.0,29,0.00,,,0.00,174,Wunderground v.1.15,2013-03-27 16:58:00,
2013-03-27 13:04:00,51.1,19.9,29.79,North,5,7.0,11.0,29,0.00,,,0.00,169,Wunderground v.1.15,2013-03-27 17:04:00,
2013-03-27 13:10:00,51.7,20.4,29.78,NNW,348,6.0,8.0,29,0.00,,,0.00,160,Wunderground v.1.15,2013-03-27 17:10:00,
2013-03-27 13:16:00,52.0,20.7,29.78,NW,320,7.0,12.0,29,0.00,,,0.00,923,Wunderground v.1.15,2013-03-27 17:16:00,
2013-03-27 13:22:00,52.2,20.0,29.78,NW,319,6.0,10.0,28,0.00,,,0.00,223,Wunderground v.1.15,2013-03-27 17:22:00,
2013-03-27 13:28:00,51.9,20.6,29.78,NW,314,6.0,10.0,29,0.00,,,0.00,195,Wunderground v.1.15,2013-03-27 17:28:00,
2013-03-27 13:34:00,52.0,19.9,29.78,NW,313,6.0,10.0,28,0.00,,,0.00,302,Wunderground v.1.15,2013-03-27 17:34:00,
2013-03-27 13:40:00,52.2,20.0,29.78,NNE,17,5.0,10.0,28,0.00,,,0.00,309,Wunderground v.1.15,2013-03-27 17:40:00,
2013-03-27 13:46:00,51.9,19.8,29.78,NW,308,5.0,10.0,28,0.00,,,0.00,227,Wunderground v.1.15,2013-03-27 17:46:00,
2013-03-27 13:52:00,51.6,19.5,29.78,NW,310,8.0,11.0,28,0.00,,,0.00,271,Wunderground v.1.15,2013-03-27 17:52:00,
2013-03-27 13:58:00,52.0,19.0,29.78,NW,305,7.0,14.0,27,0.00,,,0.00,269,Wunderground v.1.15,2013-03-27 17:58:00,
2013-03-27 14:04:00,51.9,19.8,29.78,WSW,255,7.0,9.0,28,0.00,,,0.00,213,Wunderground v.1.15,2013-03-27 18:04:00,
2013-03-27 14:10:00,51.7,19.6,29.78,WNW,284,7.0,7.0,28,0.00,,,0.00,213,Wunderground v.1.15,2013-03-27 18:10:00,
2013-03-27 14:16:00,51.6,19.5,29.78,WNW,297,8.0,12.0,28,0.00,,,0.00,316,Wunderground v.1.15,2013-03-27 18:16:00,
2013-03-27 14:22:00,51.9,19.8,29.78,NW,304,7.0,11.0,28,0.00,,,0.00,624,Wunderground v.1.15,2013-03-27 18:22:00,
2013-03-27 14:28:00,52.5,20.3,29.78,West,280,4.0,11.0,28,0.00,,,0.00,216,Wunderground v.1.15,2013-03-27 18:28:00,
2013-03-27 14:34:00,52.3,19.3,29.78,NNW,329,5.0,7.0,27,0.00,,,0.00,209,Wunderground v.1.15,2013-03-27 18:34:00,
2013-03-27 14:40:00,52.2,19.2,29.78,NW,325,6.0,11.0,27,0.00,,,0.00,274,Wunderground v.1.15,2013-03-27 18:40:00,
2013-03-27 14:46:00,52.0,19.0,29.78,West,281,8.0,14.0,27,0.00,,,0.00,322,Wunderground v.1.15,2013-03-27 18:46:00,
2013-03-27 14:52:00,52.2,20.0,29.78,NW,310,7.0,11.0,28,0.00,,,0.00,323,Wunderground v.1.15,2013-03-27 18:52:00,
2013-03-27 14:58:00,52.6,19.5,29.78,North,9,7.0,11.0,27,0.00,,,0.00,301,Wunderground v.1.15,2013-03-27 18:58:00,
2013-03-27 15:04:00,52.6,19.5,29.78,NW,325,7.0,11.0,27,0.00,,,0.00,534,Wunderground v.1.15,2013-03-27 19:04:00,
2013-03-27 15:10:00,53.2,20.0,29.77,West,262,8.0,10.0,27,0.00,,,0.00,308,Wunderground v.1.15,2013-03-27 19:10:00,
2013-03-27 15:16:00,52.6,19.5,29.77,WNW,296,9.0,13.0,27,0.00,,,0.00,214,Wunderground v.1.15,2013-03-27 19:16:00,
2013-03-27 15:22:00,52.5,19.4,29.77,NW,306,8.0,10.0,27,0.00,,,0.00,174,Wunderground v.1.15,2013-03-27 19:22:00,
2013-03-27 15:28:00,52.2,20.0,29.78,NW,325,9.0,11.0,28,0.00,,,0.00,204,Wunderground v.1.15,2013-03-27 19:28:00,
2013-03-27 15:34:00,52.0,19.9,29.78,NW,318,9.0,13.0,28,0.00,,,0.00,223,Wunderground v.1.15,2013-03-27 19:34:00,
2013-03-27 15:40:00,52.2,20.0,29.78,NW,317,7.0,7.0,28,0.00,,,0.00,211,Wunderground v.1.15,2013-03-27 19:40:00,
2013-03-27 15:46:00,52.3,19.3,29.78,NW,313,6.0,10.0,27,0.00,,,0.00,248,Wunderground v.1.15,2013-03-27 19:46:00,
2013-03-27 15:52:00,52.5,20.3,29.78,NW,311,7.0,10.0,28,0.00,,,0.00,178,Wunderground v.1.15,2013-03-27 19:52:00,
2013-03-27 15:58:00,52.2,20.0,29.78,NW,309,8.0,18.0,28,0.00,,,0.00,172,Wunderground v.1.15,2013-03-27 19:58:00,
2013-03-27 16:04:00,52.2,19.2,29.78,NW,311,9.0,10.0,27,0.00,,,0.00,230,Wunderground v.1.15,2013-03-27 20:04:00,
2013-03-27 16:10:00,52.5,20.3,29.78,WNW,298,7.0,13.0,28,0.00,,,0.00,285,Wunderground v.1.15,2013-03-27 20:10:00,
2013-03-27 16:16:00,52.6,20.4,29.78,NW,306,6.0,13.0,28,0.00,,,0.00,125,Wunderground v.1.15,2013-03-27 20:16:00,
2013-03-27 16:22:00,52.5,19.4,29.78,NW,309,6.0,9.0,27,0.00,,,0.00,118,Wunderground v.1.15,2013-03-27 20:22:00,
2013-03-27 16:28:00,52.0,19.0,29.78,WNW,295,8.0,13.0,27,0.00,,,0.00,156,Wunderground v.1.15,2013-03-27 20:28:00,
2013-03-27 16:34:00,51.7,19.6,29.78,NW,304,9.0,9.0,28,0.00,,,0.00,144,Wunderground v.1.15,2013-03-27 20:34:00,
2013-03-27 16:40:00,51.7,19.6,29.78,NW,308,7.0,9.0,28,0.00,,,0.00,76,Wunderground v.1.15,2013-03-27 20:40:00,
2013-03-27 16:46:00,51.6,19.5,29.78,NW,309,9.0,18.0,28,0.00,,,0.00,58,Wunderground v.1.15,2013-03-27 20:46:00,
2013-03-27 16:52:00,51.3,20.1,29.78,NW,314,8.0,9.0,29,0.00,,,0.00,88,Wunderground v.1.15,2013-03-27 20:52:00,
2013-03-27 16:58:00,51.3,20.1,29.79,NW,321,7.0,10.0,29,0.00,,,0.00,127,Wunderground v.1.15,2013-03-27 20:58:00,
2013-03-27 17:04:00,51.3,20.1,29.79,NNW,327,9.0,9.0,29,0.00,,,0.00,148,Wunderground v.1.15,2013-03-27 21:04:00,
2013-03-27 17:10:00,51.4,20.2,29.79,NW,308,8.0,8.0,29,0.00,,,0.00,188,Wunderground v.1.15,2013-03-27 21:10:00,
2013-03-27 17:16:00,51.4,19.3,29.79,NW,321,8.0,10.0,28,0.00,,,0.00,107,Wunderground v.1.15,2013-03-27 21:16:00,
2013-03-27 17:22:00,51.1,19.9,29.79,NW,307,10.0,11.0,29,0.00,,,0.00,128,Wunderground v.1.15,2013-03-27 21:22:00,
2013-03-27 17:28:00,51.3,20.1,29.80,NW,313,10.0,15.0,29,0.00,,,0.00,316,Wunderground v.1.15,2013-03-27 21:28:00,
2013-03-27 17:34:00,51.9,20.6,29.80,NW,315,9.0,16.0,29,0.00,,,0.00,295,Wunderground v.1.15,2013-03-27 21:34:00,
2013-03-27 17:40:00,52.2,20.0,29.80,NW,315,8.0,8.0,28,0.00,,,0.00,146,Wunderground v.1.15,2013-03-27 21:40:00,
2013-03-27 17:46:00,52.0,20.7,29.80,NNW,331,7.0,10.0,29,0.00,,,0.00,255,Wunderground v.1.15,2013-03-27 21:46:00,
2013-03-27 17:52:00,52.3,20.9,29.80,WNW,298,7.0,15.0,29,0.00,,,0.00,202,Wunderground v.1.15,2013-03-27 21:52:00,
2013-03-27 17:58:00,51.6,20.3,29.81,WNW,300,9.0,15.0,29,0.00,,,0.00,60,Wunderground v.1.15,2013-03-27 21:58:00,
2013-03-27 18:04:00,50.7,21.1,29.81,NW,322,10.0,11.0,31,0.00,,,0.00,62,Wunderground v.1.15,2013-03-27 22:04:00,
2013-03-27 18:10:00,50.5,20.2,29.82,NW,311,9.0,16.0,30,0.00,,,0.00,121,Wunderground v.1.15,2013-03-27 22:10:00,
2013-03-27 18:16:00,50.7,20.4,29.82,NNE,24,8.0,16.0,30,0.00,,,0.00,105,Wunderground v.1.15,2013-03-27 22:16:00,
2013-03-27 18:22:00,50.7,20.4,29.82,NNW,341,7.0,11.0,30,0.00,,,0.00,32,Wunderground v.1.15,2013-03-27 22:22:00,
2013-03-27 18:28:00,50.2,19.9,29.82,NW,306,7.0,11.0,30,0.00,,,0.00,40,Wunderground v.1.15,2013-03-27 22:28:00,
2013-03-27 18:34:00,49.9,20.4,29.82,NW,309,8.0,11.0,31,0.00,,,0.00,25,Wunderground v.1.15,2013-03-27 22:34:00,
2013-03-27 18:40:00,49.6,20.2,29.83,NW,310,6.0,6.0,31,0.00,,,0.00,21,Wunderground v.1.15,2013-03-27 22:40:00,
2013-03-27 18:46:00,49.5,20.8,29.83,NW,312,5.0,11.0,32,0.00,,,0.00,16,Wunderground v.1.15,2013-03-27 22:46:00,
2013-03-27 18:52:00,49.2,20.6,29.83,NW,315,3.0,11.0,32,0.00,,,0.00,18,Wunderground v.1.15,2013-03-27 22:52:00,
2013-03-27 18:58:00,49.1,21.2,29.84,NW,315,4.0,11.0,33,0.00,,,0.00,12,Wunderground v.1.15,2013-03-27 22:58:00,
2013-03-27 19:04:00,49.1,21.2,29.84,NW,313,6.0,11.0,33,0.00,,,0.00,11,Wunderground v.1.15,2013-03-27 23:04:00,
2013-03-27 19:10:00,48.9,21.7,29.84,NW,313,4.0,4.0,34,0.00,,,0.00,5,Wunderground v.1.15,2013-03-27 23:10:00,
2013-03-27 19:16:00,48.9,21.0,29.84,NNW,342,4.0,7.0,33,0.00,,,0.00,0,Wunderground v.1.15,2013-03-27 23:16:00,
2013-03-27 19:22:00,48.9,21.7,29.84,NE,40,6.0,8.0,34,0.00,,,0.00,0,Wunderground v.1.15,2013-03-27 23:22:00,
2013-03-27 19:28:00,48.8,21.6,29.85,NW,305,6.0,9.0,34,0.00,,,0.00,0,Wunderground v.1.15,2013-03-27 23:28:00,
2013-03-27 19:34:00,48.8,21.6,29.85,NW,309,7.0,10.0,34,0.00,,,0.00,0,Wunderground v.1.15,2013-03-27 23:34:00,
2013-03-27 19:40:00,48.8,21.6,29.85,NNW,344,6.0,6.0,34,0.00,,,0.00,0,Wunderground v.1.15,2013-03-27 23:40:00,
2013-03-27 19:46:00,48.6,22.1,29.85,NW,323,3.0,6.0,35,0.00,,,0.00,0,Wunderground v.1.15,2013-03-27 23:46:00,
2013-03-27 19:52:00,48.5,22.1,29.85,NNE,15,3.0,4.0,35,0.00,,,0.00,0,Wunderground v.1.15,2013-03-27 23:52:00,
2013-03-27 19:58:00,48.3,21.9,29.85,NNW,329,4.0,5.0,35,0.00,,,0.00,0,Wunderground v.1.15,2013-03-27 23:58:00,
2013-03-27 20:04:00,48.3,22.5,29.85,NW,321,4.0,5.0,36,0.00,,,0.00,0,Wunderground v.1.15,2013-03-28 00:04:00,
2013-03-27 20:10:00,47.9,24.7,29.87,North,355,4.0,5.0,40,0.00,,,0.00,0,Wunderground v.1.15,2013-03-28 00:10:00,
2013-03-27 20:16:00,47.3,25.3,29.87,NNE,15,5.0,9.0,42,0.00,,,0.00,0,Wunderground v.1.15,2013-03-28 00:16:00,
2013-03-27 20:22:00,46.8,25.5,29.87,NE,36,5.0,5.0,43,0.00,,,0.00,0,Wunderground v.1.15,2013-03-28 00:22:00,
2013-03-27 20:28:00,46.7,25.9,29.87,NNE,30,3.0,5.0,44,0.00,,,0.00,0,Wunderground v.1.15,2013-03-28 00:28:00,
2013-03-27 20:34:00,46.5,25.7,29.87,NW,309,3.0,5.0,44,0.00,,,0.00,0,Wunderground v.1.15,2013-03-28 00:34:00,
2013-03-27 20:40:00,46.4,25.6,29.87,NE,54,3.0,3.0,44,0.00,,,0.00,0,Wunderground v.1.15,2013-03-28 00:40:00,
2013-03-27 20:46:00,46.4,26.2,29.87,NW,319,3.0,5.0,45,0.00,,,0.00,0,Wunderground v.1.15,2013-03-28 00:46:00,
2013-03-27 20:52:00,46.2,26.0,29.87,NW,319,2.0,5.0,45,0.00,,,0.00,0,Wunderground v.1.15,2013-03-28 00:52:00,
2013-03-27 20:58:00,46.1,25.9,29.88,NW,318,2.0,8.0,45,0.00,,,0.00,0,Wunderground v.1.15,2013-03-28 00:58:00,
2013-03-27 21:04:00,46.1,25.9,29.88,NE,44,3.0,6.0,45,0.00,,,0.00,0,Wunderground v.1.15,2013-03-28 01:04:00,
2013-03-27 21:10:00,46.0,26.4,29.89,NNE,24,4.0,8.0,46,0.00,,,0.00,0,Wunderground v.1.15,2013-03-28 01:10:00,
2013-03-27 21:16:00,45.8,26.7,29.89,North,5,4.0,8.0,47,0.00,,,0.00,0,Wunderground v.1.15,2013-03-28 01:16:00,
2013-03-27 21:22:00,45.7,26.6,29.89,NNW,337,4.0,7.0,47,0.00,,,0.00,0,Wunderground v.1.15,2013-03-28 01:22:00,
2013-03-27 21:28:00,45.5,26.9,29.89,NNW,343,5.0,7.0,48,0.00,,,0.00,0,Wunderground v.1.15,2013-03-28 01:28:00,
2013-03-27 21:34:00,45.4,26.8,29.89,NNW,331,6.0,10.0,48,0.00,,,0.00,0,Wunderground v.1.15,2013-03-28 01:34:00,
2013-03-27 21:40:00,45.2,27.2,29.90,North,5,5.0,11.0,49,0.00,,,0.00,0,Wunderground v.1.15,2013-03-28 01:40:00,
2013-03-27 21:46:00,45.1,27.1,29.90,NW,311,5.0,11.0,49,0.00,,,0.00,0,Wunderground v.1.15,2013-03-28 01:46:00,
2013-03-27 21:52:00,44.9,26.9,29.90,NW,315,5.0,6.0,49,0.00,,,0.00,0,Wunderground v.1.15,2013-03-28 01:52:00,
2013-03-27 21:58:00,44.8,26.8,29.90,NW,304,7.0,13.0,49,0.00,,,0.00,0,Wunderground v.1.15,2013-03-28 01:58:00,
2013-03-27 22:04:00,44.5,27.0,29.90,NW,315,10.0,19.0,50,0.00,,,0.00,0,Wunderground v.1.15,2013-03-28 02:04:00,
2013-03-27 22:10:00,44.3,26.8,29.90,NNW,341,9.0,16.0,50,0.00,,,0.00,0,Wunderground v.1.15,2013-03-28 02:10:00,
2013-03-27 22:16:00,44.1,27.1,29.90,NW,312,9.0,16.0,51,0.00,,,0.00,0,Wunderground v.1.15,2013-03-28 02:16:00,
2013-03-27 22:22:00,43.9,26.9,29.90,NW,319,9.0,16.0,51,0.00,,,0.00,0,Wunderground v.1.15,2013-03-28 02:22:00,
2013-03-27 22:28:00,43.9,27.4,29.90,NNW,330,7.0,16.0,52,0.00,,,0.00,0,Wunderground v.1.15,2013-03-28 02:28:00,
2013-03-27 22:34:00,43.8,27.3,29.90,NNW,327,7.0,16.0,52,0.00,,,0.00,0,Wunderground v.1.15,2013-03-28 02:34:00,
2013-03-27 22:40:00,43.6,27.6,29.90,NNW,329,6.0,16.0,53,0.00,,,0.00,0,Wunderground v.1.15,2013-03-28 02:40:00,
2013-03-27 22:47:00,43.3,27.8,29.90,NW,322,6.0,16.0,54,0.00,,,0.00,0,Wunderground v.1.15,2013-03-28 02:47:00,
2013-03-27 22:52:00,43.3,28.2,29.90,North,351,6.0,16.0,55,0.00,,,0.00,0,Wunderground v.1.15,2013-03-28 02:52:00,
2013-03-27 22:58:00,43.2,28.1,29.90,NW,313,6.0,16.0,55,0.00,,,0.00,0,Wunderground v.1.15,2013-03-28 02:58:00,
2013-03-27 23:04:00,43.1,28.5,29.90,NNW,342,6.0,16.0,56,0.00,,,0.00,0,Wunderground v.1.15,2013-03-28 03:04:00,
2013-03-27 23:10:00,42.9,29.1,29.90,North,355,6.0,6.0,58,0.00,,,0.00,0,Wunderground v.1.15,2013-03-28 03:10:00,
2013-03-27 23:16:00,42.8,29.0,29.90,NNW,343,6.0,12.0,58,0.00,,,0.00,0,Wunderground v.1.15,2013-03-28 03:16:00,
2013-03-27 23:22:00,42.6,29.3,29.90,North,350,6.0,10.0,59,0.00,,,0.00,0,Wunderground v.1.15,2013-03-28 03:22:00,
2013-03-27 23:28:00,42.3,29.4,29.90,NNW,330,6.0,12.0,60,0.00,,,0.00,0,Wunderground v.1.15,2013-03-28 03:28:00,
2013-03-27 23:34:00,42.2,30.1,29.90,NNW,344,5.0,12.0,62,0.00,,,0.00,0,Wunderground v.1.15,2013-03-28 03:34:00,
2013-03-27 23:40:00,41.8,30.9,29.90,NNW,346,8.0,8.0,65,0.00,,,0.00,0,Wunderground v.1.15,2013-03-28 03:40:00,
2013-03-27 23:46:00,41.6,31.1,29.90,North,350,7.0,14.0,66,0.00,,,0.00,0,Wunderground v.1.15,2013-03-28 03:46:00,
2013-03-27 23:52:00,41.5,31.0,29.90,NW,319,8.0,12.0,66,0.00,,,0.00,0,Wunderground v.1.15,2013-03-28 03:52:00,
2013-03-27 23:58:00,41.3,31.2,29.90,NW,309,7.0,12.0,67,0.00,,,0.00,0,Wunderground v.1.15,2013-03-28 03:58:00,